| time (UTC) | temp F | wind direction | speed MPH | gust MPH | rain 1hr in | rain 24hr in | rain mn in | humidity % | barometer mb |
| 20260904053021 | 56 | 0.0 | 0.0 | 0.00 | 0.12 | 0.12 | 93 | 1010.3 | |
| 20260904050020 | 56 | 0.0 | 0.0 | 0.00 | 0.12 | 0.12 | 93 | 1010.5 | |
| 20260904043016 | 56 | 0.0 | 0.0 | 0.00 | 0.12 | 0.12 | 93 | 1010.5 | |
| 20260904040020 | 56 | 0.0 | 0.0 | 0.00 | 0.12 | 0.12 | 92 | 1010.4 | |
| 20260904033015 | 56 | 0.0 | 0.0 | 0.00 | 0.12 | 0.12 | 92 | 1010.1 | |
| 20260904030017 | 56 | 0.0 | 0.0 | 0.01 | 0.12 | 0.12 | 91 | 1009.9 | |
| 20260904023017 | 57 | 0.0 | 0.0 | 0.07 | 0.12 | 0.12 | 89 | 1009.8 | |
| 20260904020022 | 59 | 270 | 1.0 | 5.0 | 0.06 | 0.11 | 0.11 | 85 | 1009.7 |
| 20260904013022 | 66 | 0.0 | 1.0 | 0.00 | 0.05 | 0.05 | 68 | 1009.5 | |
| 20260904010018 | 64 | 0.0 | 3.0 | 0.00 | 0.07 | 0.05 | 70 | 1009.5 | |
| 20260904003017 | 65 | 0.0 | 4.0 | 0.00 | 0.07 | 0.05 | 64 | 1009.3 | |
| 20260904000026 | 65 | 0.0 | 3.0 | 0.00 | 0.10 | 0.05 | 64 | 1009.3 | |
| 20260903233017 | 65 | 0.0 | 3.0 | 0.00 | 0.10 | 0.05 | 60 | 1009.3 | |
| 20260903230018 | 65 | 0.0 | 2.0 | 0.00 | 0.18 | 0.05 | 63 | 1009.4 | |
| 20260903223042 | 65 | 0.0 | 2.0 | 0.00 | 0.18 | 0.05 | 68 | 1009.6 | |
| 20260903220017 | 65 | 0.0 | 5.0 | 0.00 | 0.25 | 0.05 | 69 | 1009.6 | |
| 20260903213022 | 66 | 0.0 | 3.0 | 0.00 | 0.25 | 0.05 | 66 | 1009.6 | |
| 20260903210021 | 65 | 0.0 | 4.0 | 0.00 | 0.25 | 0.05 | 69 | 1009.5 | |
| 20260903203021 | 63 | 0.0 | 1.0 | 0.00 | 0.25 | 0.05 | 74 | 1009.3 | |
| 20260903200021 | 63 | 0.0 | 7.0 | 0.00 | 0.25 | 0.05 | 75 | 1009.6 | |
| 20260903193021 | 62 | 0.0 | 3.0 | 0.00 | 0.25 | 0.05 | 78 | 1009.4 | |
| 20260903190021 | 62 | 0.0 | 4.0 | 0.00 | 0.25 | 0.05 | 78 | 1009.3 | |
| 20260903183016 | 60 | 0.0 | 4.0 | 0.00 | 0.25 | 0.05 | 80 | 1009.3 | |
| 20260903180016 | 59 | 0.0 | 3.0 | 0.00 | 0.25 | 0.05 | 82 | 1009.0 | |
| 20260903173021 | 59 | 0.0 | 2.0 | 0.00 | 0.25 | 0.05 | 87 | 1008.9 | |
| 20260903170021 | 58 | 0.0 | 3.0 | 0.00 | 0.25 | 0.05 | 90 | 1008.8 | |
| 20260903163016 | 56 | 0.0 | 1.0 | 0.00 | 0.25 | 0.05 | 92 | 1008.9 | |
| 20260903160016 | 56 | 0.0 | 2.0 | 0.00 | 0.25 | 0.05 | 94 | 1008.9 | |
| 20260903153015 | 54 | 0.0 | 1.0 | 0.00 | 0.25 | 0.05 | 94 | 1008.8 | |
| 20260903150020 | 54 | 0.0 | 0.0 | 0.00 | 0.25 | 0.05 | 94 | 1008.8 | |
| 20260903143016 | 54 | 0.0 | 0.0 | 0.00 | 0.25 | 0.05 | 94 | 1008.5 | |
| 20260903140016 | 53 | 0.0 | 0.0 | 0.01 | 0.25 | 0.05 | 95 | 1008.4 | |
| 20260903133015 | 53 | 0.0 | 0.0 | 0.03 | 0.25 | 0.05 | 94 | 1008.3 | |
| 20260903130022 | 53 | 0.0 | 0.0 | 0.03 | 0.24 | 0.04 | 94 | 1008.1 | |
| 20260903123022 | 53 | 0.0 | 0.0 | 0.01 | 0.22 | 0.02 | 94 | 1008.2 | |
| 20260903120017 | 53 | 0.0 | 0.0 | 0.00 | 0.21 | 0.01 | 94 | 1007.9 | |
| 20260903113017 | 53 | 0.0 | 0.0 | 0.00 | 0.21 | 0.01 | 94 | 1007.6 | |
| 20260903110017 | 53 | 0.0 | 0.0 | 0.00 | 0.21 | 0.01 | 94 | 1007.6 | |
| 20260903103022 | 53 | 0.0 | 0.0 | 0.01 | 0.21 | 0.01 | 95 | 1007.6 | |
| 20260903100018 | 53 | 0.0 | 0.0 | 0.01 | 0.21 | 0.01 | 94 | 1007.5 | |
| 20260903093017 | 53 | 0.0 | 0.0 | 0.00 | 0.20 | 0.00 | 95 | 1007.6 | |
| 20260903090022 | 52 | 0.0 | 0.0 | 0.00 | 0.20 | 0.00 | 94 | 1007.4 | |
| 20260903083017 | 52 | 0.0 | 0.0 | 0.00 | 0.20 | 0.00 | 95 | 1007.3 | |
| 20260903080017 | 52 | 0.0 | 0.0 | 0.00 | 0.20 | 0.00 | 94 | 1007.3 | |
| 20260903073022 | 52 | 0.0 | 0.0 | 0.00 | 0.20 | 0.00 | 94 | 1007.1 | |
| 20260903070016 | 52 | 0.0 | 0.0 | 0.00 | 0.20 | 0.20 | 94 | 1007.1 | |
| 20260903063021 | 53 | 0.0 | 0.0 | 0.00 | 0.20 | 0.20 | 94 | 1006.9 | |
| 20260903060016 | 54 | 0.0 | 0.0 | 0.00 | 0.20 | 0.20 | 94 | 1007.0 |